When you browse on this site, cookies collect data to enhance your experience and personalize the content and advertising you see.
Visit our Privacy Policy to learn more. By continuing to use the site, you agree to this use of cookies and data.
  • In Sweden
  • List of Countries
  • For 7 days
  • Water Temperature
  • Weather Map
  • Weather Widgets
  • user-avatar
    Login

    Hourly Weather Villahermosa

    Today, 25 February, Tuesday

    Time Temperature Precipitation Wind Pressure Humidity
    00:00 +24°C° 0 mm 2 mps 756 mmHg 78%
    01:00 +24°C° 0 mm 2 mps 756 mmHg 80%
    02:00 +23°C° 0 mm 2 mps 756 mmHg 82%
    03:00 +23°C° 0 mm 1 mps 755 mmHg 84%
    04:00 +22°C° 0 mm 1 mps 756 mmHg 84%
    05:00 +22°C° 0 mm 1 mps 756 mmHg 85%
    06:00 +22°C° 0 mm 1 mps 756 mmHg 85%
    07:00 +23°C° 0 mm 1 mps 757 mmHg 82%
    08:00 +25°C° 0 mm 1 mps 757 mmHg 80%
    09:00 +26°C° 0 mm 1 mps 758 mmHg 77%
    10:00 +28°C° 0 mm 2 mps 757 mmHg 74%
    11:00 +29°C° 0 mm 2 mps 757 mmHg 71%
    12:00 +31°C° 0 mm 2 mps 757 mmHg 67%
    13:00 +31°C° 0 mm 2 mps 756 mmHg 66%
    14:00 +31°C° 0 mm 2 mps 756 mmHg 65%
    15:00 +31°C° 0 mm 2 mps 755 mmHg 64%
    16:00 +30°C° 0 mm 2 mps 755 mmHg 69%
    17:00 +29°C° 0 mm 2 mps 755 mmHg 74%
    18:00 +27°C° 0 mm 2 mps 755 mmHg 78%
    19:00 +27°C° 0 mm 2 mps 756 mmHg 78%
    20:00 +26°C° 0 mm 1 mps 756 mmHg 78%
    21:00 +25°C° 0 mm 1 mps 757 mmHg 78%
    22:00 +25°C° 0 mm 1 mps 757 mmHg 78%
    23:00 +23°C° 0 mm 0 mps 757 mmHg 78%

    Tomorrow, 26 February, Wednesday

    Time Temperature Precipitation Wind Pressure Humidity
    00:00 +22°C° 0 mm 0 mps 757 mmHg 78%
    01:00 +24°C° 0 mm 1 mps 757 mmHg 79%
    02:00 +24°C° 0 mm 1 mps 757 mmHg 79%
    03:00 +24°C° 0 mm 1 mps 757 mmHg 80%
    04:00 +24°C° 0 mm 1 mps 757 mmHg 80%
    05:00 +23°C° 0 mm 1 mps 758 mmHg 81%
    06:00 +21°C° 0 mm 0 mps 758 mmHg 81%
    07:00 +22°C° 0 mm 0 mps 759 mmHg 79%
    08:00 +24°C° 0 mm 0 mps 760 mmHg 76%
    09:00 +25°C° 0 mm 0 mps 760 mmHg 73%
    10:00 +28°C° 0.1 mm 1 mps 761 mmHg 70%
    11:00 +30°C° 0.1 mm 1 mps 761 mmHg 67%
    12:00 +31°C° 0.1 mm 2 mps 761 mmHg 64%
    13:00 +30°C° 0.8 mm 3 mps 760 mmHg 70%
    14:00 +29°C° 0.8 mm 4 mps 759 mmHg 76%
    15:00 +28°C° 0.8 mm 5 mps 759 mmHg 82%
    16:00 +27°C° 1.2 mm 5 mps 760 mmHg 85%
    17:00 +26°C° 1.2 mm 5 mps 760 mmHg 89%
    18:00 +25°C° 1.2 mm 5 mps 761 mmHg 92%
    19:00 +23°C° 5.7 mm 6 mps 762 mmHg 93%
    20:00 +22°C° 5.7 mm 7 mps 764 mmHg 93%
    21:00 +19°C° 5.7 mm 9 mps 765 mmHg 94%
    22:00 +20°C° 2.4 mm 7 mps 765 mmHg 94%
    23:00 +19°C° 2.4 mm 6 mps 766 mmHg 94%

    Day after tomorrow, 27 February, Thursday

    Time Temperature Precipitation Wind Pressure Humidity
    00:00 +19°C° 2.4 mm 4 mps 767 mmHg 94%
    01:00 +19°C° 0.9 mm 4 mps 766 mmHg 94%
    02:00 +19°C° 0.9 mm 3 mps 766 mmHg 94%
    03:00 +19°C° 0.9 mm 3 mps 766 mmHg 94%
    04:00 +19°C° 0.4 mm 2 mps 767 mmHg 93%
    05:00 +19°C° 0.4 mm 2 mps 767 mmHg 92%
    06:00 +19°C° 0.4 mm 2 mps 767 mmHg 92%
    07:00 +19°C° 0.2 mm 2 mps 767 mmHg 92%
    08:00 +20°C° 0.2 mm 1 mps 768 mmHg 92%
    09:00 +20°C° 0.2 mm 1 mps 769 mmHg 92%
    10:00 +20°C° 0.2 mm 1 mps 768 mmHg 91%
    11:00 +21°C° 0.2 mm 1 mps 768 mmHg 90%
    12:00 +21°C° 0.2 mm 1 mps 768 mmHg 89%
    13:00 +21°C° 0.3 mm 1 mps 767 mmHg 90%
    14:00 +21°C° 0.3 mm 1 mps 767 mmHg 90%
    15:00 +21°C° 0.3 mm 1 mps 766 mmHg 90%
    16:00 +20°C° 0.2 mm 1 mps 766 mmHg 91%
    17:00 +20°C° 0.2 mm 1 mps 766 mmHg 91%
    18:00 +20°C° 0.2 mm 1 mps 766 mmHg 92%
    19:00 +20°C° 0.2 mm 1 mps 767 mmHg 92%
    20:00 +20°C° 0.2 mm 1 mps 767 mmHg 93%
    21:00 +20°C° 0.2 mm 1 mps 767 mmHg 93%
    22:00 +20°C° 0.1 mm 1 mps 767 mmHg 93%
    23:00 +20°C° 0.1 mm 1 mps 767 mmHg 93%

    28 February, Friday

    Time Temperature Precipitation Wind Pressure Humidity
    00:00 +20°C° 0.1 mm 1 mps 767 mmHg 93%
    01:00 +19°C° 0 mm 1 mps 766 mmHg 93%
    02:00 +17°C° 0 mm 0 mps 766 mmHg 93%
    03:00 +17°C° 0 mm 0 mps 765 mmHg 93%
    04:00 +19°C° 0 mm 1 mps 766 mmHg 93%
    05:00 +20°C° 0 mm 1 mps 766 mmHg 92%
    06:00 +20°C° 0 mm 1 mps 766 mmHg 92%
    07:00 +20°C° 0 mm 1 mps 766 mmHg 92%
    08:00 +20°C° 0 mm 1 mps 767 mmHg 92%
    09:00 +20°C° 0 mm 2 mps 767 mmHg 92%
    10:00 +20°C° 0 mm 2 mps 767 mmHg 90%
    11:00 +21°C° 0 mm 2 mps 767 mmHg 88%
    12:00 +21°C° 0 mm 3 mps 767 mmHg 85%
    13:00 +22°C° 0 mm 3 mps 766 mmHg 80%
    14:00 +24°C° 0 mm 3 mps 766 mmHg 75%
    15:00 +25°C° 0 mm 3 mps 765 mmHg 70%
    16:00 +24°C° 0.1 mm 3 mps 765 mmHg 76%
    17:00 +22°C° 0.1 mm 3 mps 766 mmHg 82%
    18:00 +21°C° 0.1 mm 4 mps 766 mmHg 88%
    19:00 +21°C° 0.1 mm 3 mps 766 mmHg 89%
    20:00 +20°C° 0.1 mm 3 mps 767 mmHg 90%
    21:00 +20°C° 0.1 mm 2 mps 768 mmHg 91%
    22:00 +20°C° 0.2 mm 2 mps 768 mmHg 91%
    23:00 +20°C° 0.2 mm 2 mps 767 mmHg 92%

    29 February, Saturday

    Time Temperature Precipitation Wind Pressure Humidity
    00:00 +20°C° 0.2 mm 2 mps 767 mmHg 93%
    01:00 +20°C° 0.1 mm 2 mps 767 mmHg 93%
    02:00 +20°C° 0.1 mm 2 mps 767 mmHg 93%
    03:00 +19°C° 0.1 mm 2 mps 767 mmHg 93%
    04:00 +19°C° 0.1 mm 2 mps 767 mmHg 94%
    05:00 +19°C° 0.1 mm 2 mps 767 mmHg 94%
    06:00 +19°C° 0.1 mm 2 mps 767 mmHg 94%
    07:00 +19°C° 0.1 mm 3 mps 768 mmHg 92%
    08:00 +19°C° 0.1 mm 3 mps 768 mmHg 90%
    09:00 +20°C° 0.1 mm 4 mps 769 mmHg 88%
    10:00 +21°C° 0.1 mm 4 mps 768 mmHg 83%
    11:00 +22°C° 0.1 mm 4 mps 768 mmHg 78%
    12:00 +23°C° 0.1 mm 4 mps 768 mmHg 73%
    13:00 +25°C° 0.1 mm 4 mps 767 mmHg 72%
    14:00 +25°C° 0.1 mm 4 mps 766 mmHg 70%
    15:00 +26°C° 0.1 mm 4 mps 765 mmHg 68%
    16:00 +24°C° 0.1 mm 3 mps 765 mmHg 73%
    17:00 +22°C° 0.1 mm 3 mps 765 mmHg 78%
    18:00 +21°C° 0.1 mm 3 mps 765 mmHg 83%
    19:00 +20°C° 0 mm 3 mps 766 mmHg 84%
    20:00 +19°C° 0 mm 3 mps 766 mmHg 85%
    21:00 +18°C° 0 mm 2 mps 767 mmHg 87%
    22:00 +18°C° 0 mm 2 mps 766 mmHg 87%
    23:00 +17°C° 0 mm 2 mps 766 mmHg 86%

    1 March, Sunday

    Time Temperature Precipitation Wind Pressure Humidity
    00:00 +17°C° 0 mm 2 mps 766 mmHg 86%
    01:00 +18°C° 0 mm 1 mps 765 mmHg 87%
    02:00 +16°C° 0 mm 1 mps 765 mmHg 88%
    03:00 +16°C° 0 mm 1 mps 764 mmHg 89%
    04:00 +16°C° 0 mm 1 mps 764 mmHg 89%
    05:00 +16°C° 0 mm 1 mps 764 mmHg 90%
    06:00 +16°C° 0 mm 1 mps 764 mmHg 91%
    07:00 +17°C° 0 mm 2 mps 764 mmHg 87%
    08:00 +19°C° 0 mm 3 mps 765 mmHg 83%
    09:00 +21°C° 0 mm 3 mps 765 mmHg 79%
    10:00 +22°C° 0 mm 3 mps 764 mmHg 75%
    11:00 +25°C° 0 mm 4 mps 763 mmHg 72%
    12:00 +26°C° 0 mm 4 mps 763 mmHg 68%
    13:00 +27°C° 0 mm 4 mps 762 mmHg 67%
    14:00 +28°C° 0 mm 4 mps 761 mmHg 65%
    15:00 +29°C° 0 mm 4 mps 760 mmHg 64%
    16:00 +27°C° 0 mm 3 mps 759 mmHg 68%
    17:00 +26°C° 0 mm 3 mps 759 mmHg 72%
    18:00 +25°C° 0 mm 3 mps 759 mmHg 76%
    19:00 +25°C° 0 mm 3 mps 760 mmHg 73%
    20:00 +23°C° 0 mm 4 mps 760 mmHg 71%
    21:00 +22°C° 0 mm 4 mps 760 mmHg 68%
    22:00 +22°C° 0 mm 4 mps 760 mmHg 72%
    23:00 +21°C° 0 mm 3 mps 760 mmHg 75%
    Show more